QPF
0.00 0.00 0.01 0.00 0.00 0.00 0.00 0.00 0.00 0.00 0.00 0.00 0.00 0.00 0.00 0.01 0.01 0.02 0.00 0.00 0.00 0.00 0.00 0.00 0.01 0.01 0.01 0.02 0.01 0.02 0.02 0.03 0.02 0.02 0.01 0.01 0.01 0.01 0.01 0.01 0.01 0.00 0.00 0.01 0.01 0.01 0.01 0.01 0.01
0.00 0.00 0.00 0.00 0.00 0.00 0.00 0.00 0.00 0.00 0.00 0.00 0.00 0.00 0.00 0.00 0.00 0.00 0.00 0.00 0.00 0.00 0.00 0.00 0.01 0.01 0.01 0.01 0.01 0.02 0.02 0.02 0.01 0.02 0.02 0.01 0.01 0.01 0.01 0.01 0.00 0.00 0.00 0.01 0.01 0.01 0.01 0.01 0.02
0.00 0.00 0.00 0.00 0.00 0.00 0.00 0.00 0.00 0.00 0.00 0.00 0.00 0.00 0.00 0.00 0.00 0.00 0.00 0.00 0.00 0.00 0.00 0.00 0.01 0.01 0.01 0.01 0.01 0.02 0.02 0.01 0.01 0.01 0.02 0.02 0.01 0.01 0.01 0.00 0.00 0.00 0.01 0.01 0.01 0.00 0.01 0.00 0.01
0.00 0.00 0.00 0.00 0.00 0.00 0.00 0.00 0.00 0.00 0.00 0.00 0.00 0.00 0.00 0.00 0.00 0.01 0.00 0.00 0.00 0.00 0.00 0.00 0.01 0.01 0.01 0.01 0.01 0.01 0.02 0.02 0.01 0.01 0.01 0.01 0.00 0.00 0.00 0.00 0.01 0.00 0.00 0.00 0.00 0.00 0.01 0.01 0.01
0.00 0.00 0.00 0.00 0.00 0.00 0.00 0.00 0.00 0.00 0.00 0.00 0.00 0.00 0.00 0.00 0.00 0.00 0.00 0.00 0.00 0.00 0.00 0.00 0.01 0.01 0.01 0.01 0.01 0.01 0.02 0.02 0.02 0.02 0.01 0.00 0.00 0.00 0.00 0.00 0.00 0.00 0.00 0.00 0.00 0.01 0.01 0.01 0.01
0.00 0.00 0.00 0.01 0.01 0.00 0.00 0.00 0.00 0.00 0.00 0.00 0.00 0.00 0.00 0.01 0.01 0.01 0.01 0.01 0.00 0.00 0.00 0.00 0.01 0.01 0.02 0.02 0.02 0.02 0.02 0.03 0.03 0.02 0.02 0.01 0.01 0.01 0.01 0.01 0.01 0.00 0.00 0.00 0.01 0.01 0.00 0.01 0.01
0.00 0.00 0.00 0.00 0.00 0.00 0.00 0.00 0.00 0.00 0.00 0.01 0.01 0.01 0.01 0.02 0.02 0.01 0.01 0.01 0.01 0.01 0.01 0.00 0.01 0.02 0.02 0.02 0.03 0.03 0.03 0.03 0.04 0.03 0.03 0.02 0.01 0.01 0.01 0.01 0.01 0.01 0.01 0.01 0.01 0.01 0.00 0.01 0.01
0.00 0.00 0.00 0.00 0.01 0.01 0.00 0.00 0.00 0.00 0.01 0.01 0.01 0.01 0.02 0.03 0.03 0.02 0.03 0.02 0.02 0.02 0.02 0.02 0.02 0.03 0.04 0.05 0.05 0.05 0.06 0.06 0.06 0.05 0.05 0.04 0.02 0.01 0.01 0.01 0.01 0.01 0.00 0.01 0.01 0.01 0.01 0.01 0.01
0.00 0.00 0.00 0.00 0.00 0.00 0.00 0.00 0.01 0.01 0.00 0.00 0.00 0.01 0.02 0.06 0.06 0.07 0.07 0.07 0.06 0.05 0.04 0.04 0.04 0.04 0.05 0.05 0.05 0.07 0.09 0.11 0.10 0.09 0.08 0.06 0.03 0.02 0.02 0.01 0.01 0.01 0.01 0.01 0.01 0.00 0.00 0.01 0.01
0.00 0.00 0.00 0.00 0.00 0.00 0.00 0.01 0.01 0.01 0.00 0.00 0.00 0.01 0.04 0.07 0.09 0.10 0.10 0.10 0.11 0.13 0.10 0.08 0.07 0.08 0.07 0.06 0.06 0.08 0.10 0.12 0.11 0.11 0.11 0.09 0.07 0.04 0.02 0.02 0.01 0.00 0.00 0.00 0.00 0.00 0.00 0.00 0.00
0.00 0.00 0.00 0.00 0.00 0.00 0.00 0.01 0.01 0.01 0.01 0.01 0.01 0.03 0.05 0.07 0.08 0.09 0.10 0.10 0.11 0.13 0.13 0.11 0.09 0.11 0.11 0.12 0.11 0.10 0.11 0.14 0.13 0.12 0.12 0.13 0.11 0.07 0.03 0.02 0.02 0.03 0.01 0.01 0.00 0.00 0.00 0.00 0.00
0.00 0.00 0.00 0.01 0.01 0.01 0.01 0.02 0.01 0.01 0.01 0.01 0.03 0.05 0.08 0.09 0.08 0.08 0.08 0.09 0.11 0.15 0.15 0.15 0.12 0.12 0.14 0.16 0.14 0.13 0.13 0.12 0.12 0.13 0.12 0.12 0.10 0.08 0.05 0.03 0.02 0.03 0.03 0.02 0.00 0.00 0.00 0.00 0.00
0.00 0.01 0.01 0.01 0.01 0.01 0.02 0.01 0.01 0.00 0.01 0.01 0.04 0.06 0.08 0.09 0.07 0.08 0.07 0.07 0.09 0.10 0.11 0.11 0.11 0.11 0.12 0.11 0.12 0.11 0.12 0.13 0.13 0.15 0.12 0.09 0.07 0.06 0.05 0.04 0.04 0.03 0.02 0.02 0.01 0.00 0.00 0.00 0.00
0.01 0.01 0.01 0.01 0.00 0.00 0.01 0.01 0.01 0.01 0.01 0.01 0.02 0.03 0.04 0.06 0.06 0.06 0.05 0.05 0.06 0.07 0.08 0.06 0.06 0.08 0.09 0.09 0.10 0.10 0.12 0.14 0.15 0.15 0.13 0.10 0.08 0.06 0.06 0.05 0.05 0.03 0.01 0.01 0.01 0.00 0.00 0.00 0.00
0.01 0.01 0.00 0.00 0.00 0.01 0.01 0.01 0.01 0.01 0.01 0.01 0.01 0.01 0.02 0.02 0.02 0.03 0.03 0.03 0.03 0.03 0.04 0.03 0.02 0.02 0.03 0.06 0.09 0.09 0.12 0.12 0.14 0.17 0.19 0.17 0.13 0.10 0.09 0.07 0.05 0.03 0.02 0.02 0.02 0.01 0.00 0.00 0.00
0.00 0.00 0.01 0.00 0.00 0.01 0.01 0.01 0.00 0.00 0.01 0.01 0.02 0.02 0.02 0.02 0.02 0.02 0.02 0.02 0.02 0.02 0.02 0.02 0.01 0.01 0.02 0.04 0.05 0.08 0.12 0.16 0.17 0.20 0.23 0.19 0.15 0.13 0.13 0.11 0.07 0.06 0.05 0.05 0.04 0.02 0.01 0.00 0.00
0.00 0.01 0.01 0.00 0.00 0.00 0.00 0.00 0.00 0.00 0.00 0.00 0.01 0.01 0.02 0.02 0.02 0.02 0.02 0.02 0.01 0.01 0.01 0.01 0.01 0.01 0.02 0.03 0.04 0.06 0.10 0.13 0.16 0.19 0.20 0.18 0.16 0.13 0.14 0.13 0.11 0.11 0.09 0.08 0.05 0.03 0.02 0.01 0.01
0.00 0.00 0.00 0.00 0.00 0.00 0.00 0.00 0.00 0.00 0.00 0.00 0.00 0.00 0.01 0.01 0.02 0.02 0.02 0.02 0.02 0.01 0.01 0.01 0.01 0.01 0.01 0.01 0.02 0.04 0.07 0.10 0.14 0.17 0.18 0.22 0.23 0.18 0.15 0.15 0.17 0.18 0.15 0.11 0.08 0.07 0.05 0.03 0.04
0.00 0.00 0.00 0.00 0.00 0.00 0.00 0.00 0.00 0.00 0.00 0.00 0.00 0.00 0.00 0.01 0.01 0.01 0.01 0.02 0.02 0.01 0.01 0.01 0.01 0.01 0.01 0.01 0.01 0.02 0.04 0.08 0.11 0.14 0.16 0.22 0.28 0.31 0.30 0.25 0.25 0.23 0.19 0.17 0.14 0.12 0.09 0.06 0.04
0.00 0.00 0.00 0.00 0.00 0.00 0.00 0.00 0.00 0.00 0.00 0.00 0.00 0.00 0.00 0.00 0.00 0.00 0.00 0.00 0.01 0.01 0.01 0.01 0.01 0.01 0.01 0.01 0.01 0.02 0.03 0.06 0.08 0.12 0.16 0.22 0.28 0.36 0.42 0.44 0.41 0.34 0.30 0.28 0.24 0.19 0.14 0.09 0.05
0.00 0.00 0.00 0.00 0.00 0.00 0.00 0.00 0.00 0.00 0.00 0.00 0.00 0.00 0.00 0.00 0.00 0.00 0.00 0.00 0.01 0.00 0.01 0.01 0.01 0.01 0.01 0.01 0.02 0.03 0.03 0.04 0.05 0.07 0.10 0.16 0.21 0.26 0.31 0.37 0.42 0.41 0.36 0.32 0.26 0.23 0.20 0.16 0.10
0.00 0.00 0.00 0.00 0.00 0.00 0.00 0.00 0.00 0.00 0.00 0.00 0.00 0.00 0.00 0.00 0.00 0.00 0.00 0.00 0.01 0.01 0.01 0.01 0.01 0.01 0.01 0.02 0.03 0.04 0.05 0.04 0.04 0.05 0.06 0.10 0.13 0.14 0.16 0.22 0.30 0.33 0.30 0.26 0.23 0.19 0.17 0.18 0.14
0.00 0.00 0.00 0.00 0.00 0.00 0.00 0.00 0.00 0.00 0.00 0.00 0.00 0.00 0.00 0.00 0.00 0.00 0.00 0.01 0.02 0.01 0.01 0.03 0.03 0.03 0.03 0.04 0.05 0.06 0.06 0.06 0.06 0.05 0.06 0.08 0.09 0.10 0.11 0.12 0.17 0.20 0.22 0.22 0.21 0.19 0.16 0.16 0.15
0.00 0.00 0.00 0.00 0.00 0.00 0.00 0.00 0.00 0.00 0.01 0.01 0.01 0.00 0.00 0.00 0.00 0.00 0.00 0.01 0.01 0.01 0.01 0.02 0.02 0.03 0.05 0.05 0.06 0.08 0.09 0.07 0.05 0.05 0.05 0.06 0.06 0.06 0.08 0.11 0.14 0.16 0.18 0.20 0.21 0.21 0.20 0.21 0.20
0.00 0.00 0.00 0.00 0.00 0.00 0.00 0.00 0.00 0.00 0.01 0.01 0.01 0.01 0.00 0.00 0.00 0.00 0.01 0.01 0.01 0.02 0.02 0.02 0.03 0.03 0.04 0.05 0.06 0.06 0.07 0.08 0.06 0.06 0.05 0.06 0.07 0.06 0.07 0.08 0.11 0.14 0.17 0.20 0.23 0.21 0.18 0.18 0.19
0.00 0.00 0.00 0.00 0.00 0.00 0.00 0.01 0.01 0.01 0.02 0.02 0.01 0.01 0.01 0.01 0.01 0.01 0.02 0.01 0.01 0.02 0.02 0.02 0.03 0.03 0.03 0.04 0.05 0.06 0.05 0.07 0.07 0.08 0.08 0.09 0.09 0.09 0.09 0.09 0.10 0.12 0.13 0.15 0.18 0.20 0.17 0.16 0.17
0.00 0.00 0.00 0.00 0.00 0.00 0.00 0.00 0.00 0.01 0.01 0.02 0.02 0.02 0.02 0.02 0.01 0.01 0.01 0.01 0.01 0.01 0.03 0.02 0.02 0.04 0.04 0.04 0.05 0.08 0.08 0.07 0.08 0.08 0.13 0.14 0.11 0.10 0.10 0.10 0.11 0.11 0.11 0.10 0.11 0.14 0.16 0.16 0.16
0.00 0.00 0.00 0.00 0.00 0.00 0.00 0.00 0.00 0.01 0.02 0.02 0.01 0.01 0.01 0.01 0.01 0.01 0.02 0.02 0.02 0.01 0.02 0.01 0.01 0.03 0.04 0.06 0.08 0.09 0.08 0.07 0.09 0.10 0.10 0.13 0.13 0.11 0.12 0.12 0.13 0.13 0.13 0.12 0.12 0.11 0.13 0.14 0.13
0.00 0.00 0.00 0.00 0.00 0.00 0.00 0.00 0.00 0.01 0.01 0.01 0.00 0.01 0.01 0.02 0.02 0.01 0.01 0.01 0.01 0.01 0.01 0.01 0.01 0.02 0.04 0.05 0.09 0.10 0.07 0.07 0.08 0.08 0.07 0.10 0.12 0.12 0.11 0.11 0.11 0.11 0.12 0.11 0.11 0.11 0.12 0.14 0.15
0.00 0.00 0.00 0.00 0.00 0.00 0.00 0.00 0.00 0.01 0.01 0.00 0.00 0.01 0.01 0.01 0.01 0.01 0.00 0.00 0.00 0.00 0.00 0.01 0.01 0.02 0.03 0.04 0.08 0.09 0.06 0.06 0.07 0.08 0.06 0.07 0.09 0.10 0.11 0.11 0.10 0.10 0.10 0.11 0.12 0.10 0.12 0.14 0.15
MSLP
1011.03 1011.72 1012.59 1013.50 1014.35 1015.03 1015.48 1015.67 1015.64 1015.47 1015.24 1015.05 1014.94 1014.93 1014.99 1015.08 1015.15 1015.14 1015.07 1014.95 1014.82 1014.75 1014.78 1014.93 1015.19 1015.51 1015.83 1016.10 1016.27 1016.33 1016.31 1016.24 1016.19 1016.19 1016.26 1016.41 1016.59 1016.78 1016.92 1016.99 1016.99 1016.92 1016.83 1016.74 1016.69 1016.69 1016.73 1016.79 1016.85
1011.25 1012.12 1013.11 1014.08 1014.92 1015.53 1015.85 1015.88 1015.69 1015.37 1015.02 1014.75 1014.59 1014.57 1014.64 1014.75 1014.85 1014.89 1014.86 1014.78 1014.70 1014.68 1014.76 1014.96 1015.26 1015.61 1015.97 1016.26 1016.45 1016.55 1016.55 1016.52 1016.49 1016.50 1016.58 1016.72 1016.88 1017.02 1017.12 1017.15 1017.11 1017.03 1016.94 1016.87 1016.84 1016.87 1016.93 1017.01 1017.06
1011.62 1012.62 1013.68 1014.66 1015.44 1015.93 1016.09 1015.96 1015.61 1015.16 1014.72 1014.40 1014.23 1014.21 1014.30 1014.44 1014.56 1014.62 1014.62 1014.57 1014.53 1014.55 1014.67 1014.92 1015.26 1015.65 1016.04 1016.36 1016.60 1016.72 1016.77 1016.77 1016.78 1016.81 1016.90 1017.02 1017.15 1017.26 1017.31 1017.29 1017.22 1017.12 1017.03 1016.98 1016.99 1017.05 1017.14 1017.22 1017.26
1012.08 1013.16 1014.24 1015.18 1015.85 1016.20 1016.20 1015.92 1015.45 1014.92 1014.44 1014.11 1013.95 1013.95 1014.07 1014.22 1014.35 1014.42 1014.41 1014.37 1014.35 1014.39 1014.55 1014.82 1015.20 1015.62 1016.04 1016.39 1016.65 1016.81 1016.90 1016.94 1016.98 1017.05 1017.15 1017.26 1017.37 1017.44 1017.46 1017.40 1017.31 1017.20 1017.12 1017.10 1017.14 1017.23 1017.34 1017.43 1017.45
1012.59 1013.70 1014.75 1015.59 1016.14 1016.34 1016.21 1015.83 1015.29 1014.74 1014.28 1013.99 1013.87 1013.92 1014.06 1014.21 1014.33 1014.36 1014.33 1014.26 1014.23 1014.27 1014.43 1014.72 1015.11 1015.54 1015.96 1016.33 1016.60 1016.78 1016.89 1016.97 1017.04 1017.14 1017.26 1017.38 1017.49 1017.54 1017.54 1017.47 1017.37 1017.27 1017.21 1017.22 1017.29 1017.40 1017.53 1017.61 1017.61
1013.11 1014.19 1015.16 1015.90 1016.32 1016.41 1016.19 1015.76 1015.24 1014.74 1014.36 1014.15 1014.12 1014.21 1014.36 1014.50 1014.57 1014.54 1014.45 1014.33 1014.25 1014.26 1014.40 1014.67 1015.04 1015.45 1015.84 1016.18 1016.44 1016.61 1016.72 1016.82 1016.92 1017.05 1017.19 1017.34 1017.46 1017.53 1017.53 1017.47 1017.39 1017.32 1017.28 1017.32 1017.41 1017.54 1017.67 1017.74 1017.72
1013.60 1014.62 1015.49 1016.12 1016.44 1016.47 1016.23 1015.84 1015.40 1015.02 1014.77 1014.68 1014.73 1014.87 1015.02 1015.12 1015.12 1015.01 1014.82 1014.63 1014.48 1014.43 1014.52 1014.74 1015.05 1015.40 1015.73 1016.00 1016.20 1016.33 1016.42 1016.51 1016.62 1016.77 1016.95 1017.13 1017.28 1017.38 1017.41 1017.39 1017.34 1017.30 1017.31 1017.37 1017.48 1017.62 1017.73 1017.78 1017.74
1014.05 1014.99 1015.77 1016.31 1016.58 1016.60 1016.41 1016.12 1015.83 1015.61 1015.52 1015.56 1015.70 1015.87 1016.00 1016.04 1015.95 1015.74 1015.45 1015.16 1014.94 1014.82 1014.83 1014.97 1015.19 1015.43 1015.66 1015.82 1015.92 1015.98 1016.02 1016.08 1016.20 1016.36 1016.57 1016.79 1016.98 1017.12 1017.20 1017.22 1017.22 1017.22 1017.26 1017.34 1017.46 1017.60 1017.70 1017.73 1017.67
1014.46 1015.32 1016.03 1016.53 1016.80 1016.87 1016.79 1016.66 1016.54 1016.51 1016.57 1016.73 1016.93 1017.11 1017.20 1017.15 1016.96 1016.65 1016.27 1015.90 1015.60 1015.40 1015.33 1015.36 1015.47 1015.58 1015.67 1015.70 1015.68 1015.64 1015.61 1015.63 1015.72 1015.89 1016.11 1016.36 1016.59 1016.77 1016.90 1016.96 1017.00 1017.04 1017.11 1017.21 1017.33 1017.45 1017.54 1017.55 1017.48
1014.84 1015.65 1016.32 1016.82 1017.14 1017.31 1017.38 1017.43 1017.49 1017.63 1017.83 1018.06 1018.28 1018.42 1018.44 1018.30 1018.02 1017.62 1017.17 1016.73 1016.37 1016.11 1015.96 1015.89 1015.87 1015.84 1015.77 1015.66 1015.50 1015.35 1015.24 1015.20 1015.26 1015.42 1015.65 1015.91 1016.16 1016.37 1016.53 1016.63 1016.70 1016.77 1016.85 1016.96 1017.08 1017.19 1017.26 1017.26 1017.19
1015.20 1015.99 1016.66 1017.20 1017.60 1017.91 1018.15 1018.37 1018.60 1018.86 1019.13 1019.39 1019.57 1019.64 1019.57 1019.33 1018.96 1018.50 1018.00 1017.54 1017.14 1016.84 1016.63 1016.47 1016.32 1016.16 1015.94 1015.68 1015.41 1015.15 1014.95 1014.85 1014.88 1015.01 1015.23 1015.48 1015.73 1015.96 1016.12 1016.24 1016.33 1016.41 1016.50 1016.61 1016.72 1016.82 1016.88 1016.88 1016.81
1015.57 1016.35 1017.06 1017.66 1018.18 1018.63 1019.03 1019.39 1019.74 1020.07 1020.36 1020.57 1020.67 1020.63 1020.44 1020.11 1019.67 1019.17 1018.67 1018.21 1017.82 1017.50 1017.24 1017.01 1016.77 1016.48 1016.14 1015.76 1015.37 1015.02 1014.76 1014.61 1014.59 1014.69 1014.88 1015.11 1015.34 1015.54 1015.70 1015.82 1015.91 1016.00 1016.09 1016.19 1016.30 1016.38 1016.44 1016.44 1016.40
1015.96 1016.76 1017.51 1018.20 1018.83 1019.41 1019.93 1020.41 1020.82 1021.15 1021.39 1021.50 1021.47 1021.29 1020.98 1020.56 1020.08 1019.57 1019.09 1018.67 1018.31 1018.00 1017.73 1017.45 1017.12 1016.74 1016.30 1015.83 1015.37 1014.96 1014.64 1014.45 1014.39 1014.45 1014.59 1014.78 1014.97 1015.14 1015.28 1015.39 1015.48 1015.57 1015.66 1015.76 1015.86 1015.95 1016.00 1016.01 1016.00
1016.41 1017.22 1018.01 1018.77 1019.50 1020.18 1020.79 1021.32 1021.74 1022.03 1022.16 1022.13 1021.95 1021.63 1021.20 1020.71 1020.20 1019.71 1019.28 1018.90 1018.59 1018.31 1018.03 1017.72 1017.34 1016.89 1016.39 1015.86 1015.35 1014.90 1014.56 1014.33 1014.24 1014.25 1014.34 1014.48 1014.62 1014.75 1014.87 1014.97 1015.06 1015.16 1015.27 1015.38 1015.48 1015.57 1015.63 1015.65 1015.66
1016.93 1017.73 1018.54 1019.35 1020.14 1020.89 1021.55 1022.09 1022.48 1022.69 1022.70 1022.53 1022.19 1021.73 1021.21 1020.66 1020.13 1019.68 1019.29 1018.97 1018.71 1018.45 1018.17 1017.83 1017.41 1016.92 1016.38 1015.82 1015.29 1014.83 1014.46 1014.22 1014.09 1014.05 1014.09 1014.16 1014.26 1014.36 1014.46 1014.56 1014.68 1014.81 1014.95 1015.08 1015.21 1015.31 1015.38 1015.42 1015.44
1017.53 1018.30 1019.10 1019.92 1020.74 1021.51 1022.18 1022.71 1023.05 1023.17 1023.06 1022.76 1022.29 1021.73 1021.12 1020.54 1020.02 1019.58 1019.24 1018.97 1018.73 1018.48 1018.19 1017.83 1017.38 1016.86 1016.29 1015.72 1015.19 1014.72 1014.35 1014.08 1013.91 1013.82 1013.79 1013.81 1013.86 1013.94 1014.04 1014.18 1014.35 1014.53 1014.73 1014.91 1015.08 1015.20 1015.28 1015.32 1015.36
1018.20 1018.90 1019.66 1020.45 1021.26 1022.02 1022.69 1023.19 1023.48 1023.52 1023.32 1022.92 1022.37 1021.73 1021.08 1020.48 1019.97 1019.56 1019.24 1018.98 1018.75 1018.49 1018.17 1017.77 1017.29 1016.75 1016.17 1015.60 1015.07 1014.60 1014.21 1013.91 1013.69 1013.54 1013.45 1013.41 1013.43 1013.50 1013.63 1013.82 1014.06 1014.33 1014.61 1014.86 1015.08 1015.23 1015.32 1015.37 1015.40
1018.93 1019.53 1020.20 1020.93 1021.70 1022.44 1023.08 1023.55 1023.80 1023.79 1023.54 1023.09 1022.50 1021.84 1021.18 1020.58 1020.08 1019.68 1019.36 1019.09 1018.83 1018.53 1018.17 1017.73 1017.22 1016.66 1016.08 1015.51 1014.98 1014.50 1014.09 1013.75 1013.46 1013.23 1013.07 1012.97 1012.96 1013.04 1013.21 1013.48 1013.81 1014.19 1014.56 1014.90 1015.17 1015.36 1015.47 1015.52 1015.54
1019.65 1020.13 1020.70 1021.35 1022.06 1022.75 1023.36 1023.81 1024.04 1024.02 1023.77 1023.32 1022.73 1022.08 1021.44 1020.85 1020.36 1019.95 1019.61 1019.31 1019.00 1018.64 1018.23 1017.74 1017.21 1016.64 1016.06 1015.50 1014.97 1014.48 1014.03 1013.63 1013.26 1012.95 1012.70 1012.54 1012.49 1012.58 1012.80 1013.14 1013.58 1014.06 1014.53 1014.96 1015.29 1015.52 1015.65 1015.71 1015.72
1020.30 1020.66 1021.13 1021.69 1022.33 1022.97 1023.55 1023.99 1024.22 1024.22 1023.99 1023.57 1023.03 1022.42 1021.81 1021.25 1020.76 1020.34 1019.97 1019.61 1019.24 1018.82 1018.35 1017.84 1017.28 1016.72 1016.16 1015.61 1015.08 1014.57 1014.08 1013.60 1013.14 1012.72 1012.38 1012.15 1012.06 1012.14 1012.39 1012.80 1013.32 1013.90 1014.46 1014.97 1015.36 1015.63 1015.78 1015.84 1015.86
1020.84 1021.09 1021.46 1021.94 1022.52 1023.11 1023.66 1024.09 1024.33 1024.36 1024.18 1023.82 1023.33 1022.78 1022.22 1021.69 1021.20 1020.76 1020.34 1019.93 1019.50 1019.03 1018.52 1017.99 1017.44 1016.90 1016.36 1015.84 1015.32 1014.80 1014.26 1013.70 1013.15 1012.62 1012.17 1011.85 1011.70 1011.75 1012.00 1012.45 1013.02 1013.66 1014.29 1014.85 1015.29 1015.59 1015.77 1015.85 1015.88
1021.22 1021.39 1021.69 1022.11 1022.63 1023.19 1023.71 1024.12 1024.38 1024.43 1024.30 1024.00 1023.57 1023.08 1022.56 1022.06 1021.57 1021.11 1020.65 1020.19 1019.71 1019.21 1018.69 1018.16 1017.64 1017.14 1016.66 1016.17 1015.68 1015.14 1014.56 1013.93 1013.28 1012.65 1012.09 1011.67 1011.44 1011.43 1011.65 1012.08 1012.66 1013.32 1013.97 1014.55 1015.01 1015.34 1015.55 1015.67 1015.73
1021.45 1021.58 1021.84 1022.23 1022.70 1023.22 1023.71 1024.11 1024.36 1024.43 1024.33 1024.07 1023.70 1023.25 1022.77 1022.29 1021.80 1021.33 1020.84 1020.35 1019.85 1019.33 1018.82 1018.32 1017.85 1017.41 1016.98 1016.55 1016.08 1015.55 1014.95 1014.26 1013.53 1012.80 1012.14 1011.61 1011.28 1011.19 1011.35 1011.72 1012.25 1012.87 1013.49 1014.06 1014.53 1014.87 1015.11 1015.27 1015.40
1021.57 1021.70 1021.96 1022.33 1022.78 1023.26 1023.71 1024.08 1024.30 1024.36 1024.27 1024.03 1023.69 1023.28 1022.83 1022.36 1021.88 1021.40 1020.90 1020.40 1019.88 1019.38 1018.89 1018.44 1018.03 1017.65 1017.29 1016.91 1016.48 1015.97 1015.35 1014.63 1013.84 1013.04 1012.29 1011.67 1011.24 1011.05 1011.10 1011.38 1011.82 1012.35 1012.91 1013.43 1013.87 1014.21 1014.48 1014.69 1014.88
1021.64 1021.81 1022.09 1022.46 1022.90 1023.35 1023.75 1024.06 1024.24 1024.26 1024.15 1023.91 1023.58 1023.19 1022.76 1022.30 1021.83 1021.35 1020.86 1020.36 1019.85 1019.37 1018.91 1018.51 1018.15 1017.83 1017.53 1017.20 1016.81 1016.32 1015.71 1014.98 1014.17 1013.32 1012.51 1011.82 1011.31 1011.01 1010.95 1011.10 1011.42 1011.83 1012.29 1012.73 1013.12 1013.45 1013.73 1013.99 1014.27
1021.73 1021.96 1022.28 1022.67 1023.09 1023.49 1023.84 1024.08 1024.19 1024.16 1024.01 1023.75 1023.42 1023.03 1022.61 1022.17 1021.72 1021.25 1020.77 1020.28 1019.80 1019.34 1018.92 1018.54 1018.23 1017.95 1017.69 1017.40 1017.04 1016.57 1015.98 1015.27 1014.45 1013.60 1012.77 1012.04 1011.46 1011.08 1010.90 1010.93 1011.11 1011.39 1011.72 1012.06 1012.39 1012.69 1012.98 1013.28 1013.62
1021.89 1022.19 1022.56 1022.96 1023.36 1023.71 1023.98 1024.14 1024.18 1024.08 1023.88 1023.59 1023.24 1022.86 1022.46 1022.04 1021.61 1021.16 1020.71 1020.24 1019.78 1019.33 1018.93 1018.58 1018.28 1018.02 1017.77 1017.49 1017.15 1016.71 1016.14 1015.46 1014.68 1013.85 1013.04 1012.31 1011.70 1011.26 1011.00 1010.91 1010.96 1011.11 1011.32 1011.55 1011.80 1012.06 1012.35 1012.67 1013.05
1022.12 1022.49 1022.89 1023.29 1023.66 1023.96 1024.15 1024.23 1024.18 1024.02 1023.77 1023.45 1023.10 1022.72 1022.34 1021.95 1021.54 1021.13 1020.70 1020.25 1019.81 1019.38 1018.98 1018.63 1018.32 1018.05 1017.79 1017.51 1017.17 1016.74 1016.20 1015.57 1014.84 1014.08 1013.32 1012.62 1012.02 1011.56 1011.24 1011.07 1011.01 1011.05 1011.14 1011.28 1011.45 1011.66 1011.92 1012.25 1012.64
1022.41 1022.82 1023.23 1023.62 1023.94 1024.17 1024.29 1024.29 1024.17 1023.96 1023.67 1023.34 1022.98 1022.62 1022.27 1021.91 1021.54 1021.15 1020.75 1020.33 1019.90 1019.48 1019.08 1018.71 1018.38 1018.08 1017.79 1017.49 1017.14 1016.72 1016.21 1015.63 1014.97 1014.29 1013.61 1012.97 1012.42 1011.97 1011.64 1011.42 1011.29 1011.24 1011.24 1011.29 1011.39 1011.54 1011.76 1012.07 1012.45
1022.68 1023.10 1023.50 1023.85 1024.11 1024.28 1024.32 1024.26 1024.09 1023.84 1023.54 1023.21 1022.88 1022.55 1022.22 1021.90 1021.56 1021.21 1020.83 1020.43 1020.01 1019.60 1019.19 1018.81 1018.45 1018.12 1017.81 1017.48 1017.12 1016.70 1016.23 1015.70 1015.12 1014.52 1013.93 1013.38 1012.90 1012.49 1012.17 1011.94 1011.77 1011.65 1011.59 1011.57 1011.60 1011.70 1011.86 1012.12 1012.45
Thickness
5833 5833 5832 5823 5812 5802 5789 5795 5804 5804 5806 5813 5815 5811 5806 5800 5793 5785 5798 5809 5807 5803 5797 5790 5787 5785 5783 5781 5780 5778 5777 5775 5774 5773 5772 5771 5770 5769 5768 5768 5768 5768 5768 5768 5768 5768 5768 5769 5770
5838 5835 5828 5821 5806 5786 5784 5800 5800 5804 5810 5816 5815 5812 5807 5801 5802 5799 5802 5805 5805 5802 5797 5793 5787 5785 5783 5781 5780 5778 5776 5775 5773 5772 5771 5770 5769 5768 5767 5767 5766 5766 5766 5766 5766 5766 5766 5767 5768
5840 5836 5824 5815 5799 5788 5786 5800 5804 5810 5816 5814 5810 5810 5805 5797 5801 5802 5805 5805 5804 5800 5797 5791 5786 5784 5783 5781 5779 5778 5776 5775 5773 5772 5770 5769 5768 5767 5766 5766 5765 5765 5765 5765 5765 5765 5765 5765 5765
5838 5829 5825 5810 5791 5796 5800 5807 5811 5810 5811 5813 5810 5803 5803 5803 5805 5807 5806 5805 5803 5799 5795 5790 5785 5783 5782 5780 5779 5777 5776 5774 5773 5771 5770 5769 5768 5766 5766 5765 5764 5764 5764 5763 5763 5763 5763 5763 5764
5837 5825 5810 5796 5793 5802 5810 5813 5815 5807 5804 5806 5808 5798 5793 5801 5806 5806 5803 5802 5800 5798 5794 5790 5784 5782 5780 5779 5778 5776 5775 5774 5772 5771 5769 5768 5767 5766 5765 5764 5764 5763 5763 5762 5762 5762 5762 5762 5762
5826 5822 5801 5787 5791 5802 5811 5815 5814 5807 5804 5803 5803 5796 5790 5799 5800 5800 5801 5799 5799 5796 5792 5789 5782 5780 5779 5778 5776 5775 5774 5773 5772 5770 5769 5768 5767 5766 5765 5764 5763 5762 5762 5761 5761 5761 5761 5761 5761
5820 5812 5796 5792 5789 5793 5802 5813 5808 5803 5797 5796 5801 5793 5790 5793 5796 5799 5799 5798 5797 5794 5791 5789 5787 5782 5778 5777 5775 5774 5773 5772 5771 5770 5769 5767 5766 5765 5764 5764 5763 5762 5761 5761 5760 5760 5760 5760 5760
5827 5814 5795 5793 5788 5786 5800 5806 5802 5798 5790 5796 5797 5786 5780 5786 5793 5795 5794 5793 5792 5791 5789 5788 5787 5784 5782 5779 5775 5774 5772 5771 5770 5769 5768 5767 5766 5765 5764 5763 5762 5762 5761 5760 5759 5759 5759 5759 5759
5827 5806 5789 5789 5787 5785 5797 5796 5794 5796 5788 5785 5784 5780 5782 5786 5788 5786 5784 5783 5783 5783 5785 5785 5784 5782 5780 5779 5777 5774 5772 5771 5769 5768 5767 5766 5767 5768 5766 5765 5762 5761 5760 5759 5759 5758 5758 5759 5759
5818 5795 5786 5792 5794 5785 5784 5783 5783 5782 5774 5772 5772 5774 5778 5778 5778 5775 5773 5773 5774 5774 5778 5780 5779 5779 5778 5777 5776 5773 5773 5771 5770 5770 5769 5768 5768 5769 5768 5764 5761 5759 5759 5758 5758 5757 5758 5759 5763
5808 5791 5789 5792 5794 5789 5779 5769 5771 5770 5754 5752 5755 5759 5765 5766 5766 5765 5764 5765 5766 5768 5769 5772 5774 5775 5774 5773 5773 5772 5771 5770 5770 5769 5769 5767 5767 5767 5766 5765 5762 5760 5759 5761 5759 5759 5762 5764 5766
5797 5788 5791 5788 5787 5782 5775 5767 5755 5749 5742 5748 5752 5755 5756 5755 5755 5755 5756 5758 5760 5761 5762 5765 5767 5769 5770 5769 5770 5769 5769 5769 5769 5768 5767 5765 5764 5765 5766 5765 5765 5763 5762 5762 5762 5762 5764 5764 5765
5791 5779 5778 5777 5774 5769 5764 5755 5746 5738 5742 5745 5747 5748 5747 5747 5748 5749 5751 5752 5753 5754 5755 5758 5760 5762 5764 5765 5764 5765 5766 5766 5767 5765 5765 5764 5762 5763 5764 5764 5762 5762 5762 5761 5760 5761 5763 5763 5764
5787 5780 5774 5771 5767 5761 5753 5746 5739 5730 5736 5737 5738 5737 5739 5738 5739 5741 5742 5743 5745 5747 5748 5751 5752 5755 5756 5758 5759 5760 5761 5762 5762 5762 5761 5762 5761 5761 5762 5762 5761 5760 5760 5760 5759 5760 5761 5761 5762
5787 5774 5766 5763 5762 5757 5754 5732 5723 5725 5729 5728 5729 5728 5728 5729 5731 5731 5732 5733 5735 5737 5740 5743 5745 5747 5749 5751 5753 5755 5755 5757 5758 5758 5758 5758 5758 5758 5758 5759 5759 5758 5757 5758 5757 5759 5758 5759 5759
5782 5771 5755 5748 5752 5749 5745 5713 5714 5721 5721 5718 5719 5720 5719 5720 5722 5722 5723 5724 5726 5727 5730 5733 5735 5738 5740 5742 5745 5748 5750 5751 5752 5752 5752 5754 5754 5754 5754 5754 5754 5755 5755 5754 5754 5754 5754 5755 5755
5770 5761 5750 5739 5742 5741 5733 5706 5707 5714 5713 5710 5710 5711 5711 5711 5711 5712 5713 5714 5716 5717 5720 5722 5725 5728 5730 5733 5736 5739 5741 5744 5746 5747 5748 5749 5750 5750 5749 5749 5750 5751 5750 5750 5750 5750 5750 5751 5751
5758 5756 5744 5733 5729 5729 5716 5702 5702 5705 5703 5702 5703 5703 5703 5701 5700 5702 5703 5704 5706 5708 5710 5712 5714 5717 5719 5723 5727 5730 5732 5735 5738 5740 5742 5742 5743 5744 5744 5745 5746 5746 5744 5744 5744 5745 5745 5746 5746
5761 5752 5738 5725 5722 5717 5706 5698 5696 5697 5695 5693 5693 5693 5692 5691 5694 5694 5694 5695 5697 5698 5699 5700 5701 5704 5707 5710 5713 5716 5720 5725 5728 5732 5735 5736 5736 5737 5739 5740 5741 5740 5739 5739 5739 5739 5738 5738 5742
5753 5743 5730 5717 5716 5712 5701 5693 5692 5690 5686 5683 5683 5682 5681 5680 5683 5683 5683 5684 5684 5685 5686 5688 5690 5693 5695 5698 5701 5705 5709 5715 5719 5723 5726 5728 5730 5731 5734 5735 5735 5735 5733 5732 5732 5732 5730 5732 5736
5741 5737 5728 5716 5706 5706 5698 5688 5686 5683 5682 5678 5676 5673 5672 5670 5670 5671 5671 5672 5673 5674 5675 5677 5678 5682 5685 5688 5691 5695 5699 5703 5708 5711 5716 5720 5723 5724 5727 5729 5729 5729 5728 5727 5726 5727 5724 5724 5728
5731 5729 5725 5715 5708 5701 5693 5688 5679 5676 5673 5669 5667 5665 5662 5662 5663 5662 5662 5662 5664 5665 5666 5668 5669 5672 5675 5678 5680 5682 5686 5690 5696 5701 5706 5711 5715 5717 5720 5722 5723 5724 5724 5723 5723 5723 5722 5721 5721
5727 5725 5722 5715 5708 5699 5692 5686 5677 5672 5663 5660 5659 5658 5656 5656 5655 5655 5655 5655 5656 5657 5657 5659 5661 5664 5667 5669 5671 5673 5677 5681 5686 5691 5696 5700 5705 5709 5712 5715 5717 5719 5720 5720 5720 5720 5719 5719 5720
5727 5722 5716 5712 5708 5692 5684 5678 5667 5663 5655 5653 5653 5652 5651 5651 5651 5649 5650 5649 5649 5650 5650 5651 5653 5655 5658 5661 5663 5666 5668 5671 5675 5680 5685 5690 5696 5701 5704 5707 5710 5712 5714 5716 5716 5717 5717 5717 5717
5727 5719 5710 5703 5696 5688 5678 5670 5660 5658 5655 5650 5647 5647 5647 5647 5645 5643 5642 5642 5642 5642 5642 5644 5645 5647 5650 5654 5656 5659 5660 5662 5666 5670 5675 5681 5686 5691 5696 5700 5703 5705 5708 5710 5712 5712 5713 5714 5714
5719 5718 5705 5697 5694 5685 5672 5664 5661 5659 5655 5652 5649 5646 5644 5643 5641 5639 5638 5637 5637 5637 5637 5638 5639 5640 5643 5646 5649 5652 5654 5656 5659 5662 5667 5673 5678 5683 5689 5693 5696 5699 5701 5704 5706 5707 5709 5710 5711
5717 5712 5707 5701 5691 5681 5673 5664 5661 5659 5654 5650 5647 5644 5641 5640 5639 5637 5636 5635 5635 5634 5633 5634 5634 5636 5638 5641 5643 5646 5648 5650 5653 5657 5662 5666 5671 5677 5681 5686 5689 5692 5696 5698 5700 5702 5704 5705 5706
5716 5708 5704 5697 5683 5678 5670 5662 5658 5653 5650 5649 5646 5643 5641 5640 5638 5636 5635 5634 5634 5633 5632 5632 5632 5633 5635 5637 5639 5641 5643 5646 5649 5653 5657 5661 5665 5670 5675 5679 5683 5687 5689 5692 5694 5697 5699 5700 5701
5709 5703 5698 5693 5686 5676 5666 5662 5664 5656 5652 5648 5646 5644 5641 5639 5638 5636 5635 5634 5633 5633 5632 5630 5631 5631 5632 5634 5636 5638 5641 5643 5646 5649 5652 5655 5659 5664 5669 5672 5676 5680 5683 5686 5688 5691 5694 5695 5696
5708 5702 5698 5691 5681 5675 5669 5664 5669 5661 5656 5651 5647 5645 5643 5641 5640 5638 5636 5635 5634 5632 5631 5630 5630 5630 5631 5633 5635 5636 5638 5639 5642 5645 5648 5651 5653 5657 5661 5665 5669 5672 5675 5679 5683 5685 5687 5689 5690